Theta_e
300 300 301 302 302 302 301 302 303 303 303 300 298 299 296 297 295 310 313 310 304 294 287 290 288 288 290 294 293 294 293 292 293 291 293 290 291 290 290 292 289 292 289 290 289 290 288 291 290 295 295 296 299 301 303 304 303 297 294 298 296 310 283 285 284 286 290 295 300 301 301 301 297 296 297 293 289 286 283 279 282 282 282 279 280 283 288
300 301 301 302 302 301 302 302 303 303 303 300 299 295 295 299 299 302 310 312 303 291 282 282 281 286 290 291 291 295 293 293 292 291 292 292 289 289 291 291 292 291 292 290 288 291 284 294 293 291 296 295 303 303 304 305 301 300 295 293 298 285 286 281 279 280 282 286 289 291 295 298 293 291 294 296 294 293 289 287 285 282 284 282 281 281 287
300 301 301 302 302 301 301 302 303 303 304 304 299 293 296 297 302 302 304 306 300 289 291 290 284 288 292 293 292 293 294 293 293 293 291 294 292 292 290 293 293 291 293 290 291 293 290 289 296 295 296 296 302 303 305 306 303 307 310 310 301 289 288 282 279 276 274 275 278 281 283 288 290 295 295 296 295 292 287 284 281 282 284 284 282 285 292
299 301 302 302 301 300 301 302 303 303 304 304 300 296 294 294 285 295 297 300 298 296 299 297 293 289 290 285 288 293 291 294 293 293 293 293 293 291 293 292 291 290 291 289 288 291 297 293 292 292 292 296 299 301 303 305 305 309 312 309 299 289 291 286 280 280 278 280 286 292 291 291 288 291 293 293 294 293 287 284 282 282 283 284 289 292 292
299 300 302 301 301 300 301 302 302 303 304 304 299 297 296 299 290 286 286 295 296 293 295 296 295 287 290 283 290 288 291 294 294 294 289 292 292 292 291 292 288 288 288 287 287 290 293 295 294 293 294 297 298 301 302 303 308 309 305 308 294 287 288 291 292 291 291 293 293 295 296 291 291 290 290 292 292 292 288 280 283 287 288 285 293 295 291
299 300 301 301 301 300 301 302 303 303 304 304 301 294 298 290 293 298 295 289 283 287 287 294 293 295 295 287 291 290 289 290 285 292 293 293 292 288 290 291 291 290 289 288 282 288 290 290 286 296 294 294 294 295 300 299 305 305 300 302 294 287 284 292 292 291 293 293 292 293 292 291 291 291 291 290 291 292 290 290 292 288 284 285 293 293 290
299 300 301 301 300 300 301 302 302 303 302 303 298 293 300 299 296 297 300 289 292 291 293 296 294 293 292 287 291 288 290 288 292 290 289 291 291 290 281 287 290 291 291 287 284 287 280 284 291 291 291 292 288 287 292 299 303 300 298 299 296 290 287 291 292 289 290 291 291 292 290 289 289 290 291 292 291 291 292 292 292 291 290 295 292 290 288
299 300 301 301 300 300 301 302 302 303 302 302 298 296 294 293 292 290 297 297 293 292 292 293 293 289 294 285 289 292 290 289 290 293 290 284 288 293 288 290 292 293 293 291 288 290 289 289 283 293 291 288 289 289 291 291 297 301 297 299 296 291 286 294 291 287 287 289 290 290 290 289 286 288 290 291 291 290 291 292 292 293 290 290 289 287 285
300 301 301 300 300 300 301 301 302 302 303 298 297 298 301 302 303 302 296 289 290 293 293 290 290 287 287 284 288 291 293 290 293 291 295 290 289 292 289 292 292 294 292 291 291 293 292 291 292 294 291 288 293 289 291 296 293 298 295 296 294 293 286 291 285 284 284 289 288 288 288 287 286 285 287 289 288 286 288 287 290 291 288 289 288 286 284
300 300 301 300 300 300 301 301 302 302 303 298 298 296 306 306 309 305 297 288 294 292 291 290 288 284 283 288 289 290 290 295 292 284 291 293 294 294 293 292 291 289 291 290 293 296 296 295 295 294 293 296 296 296 296 296 292 293 295 295 290 292 288 284 283 283 283 289 289 289 288 286 283 283 286 289 290 290 290 290 291 290 292 287 285 285 290
299 300 300 300 300 300 300 301 302 302 301 297 295 296 299 299 297 299 301 290 285 286 286 286 286 289 290 295 291 293 291 292 291 284 285 294 294 295 295 292 289 286 289 294 298 298 298 297 296 295 293 296 296 297 299 298 297 297 294 292 292 294 292 286 289 283 284 289 289 288 282 277 277 288 292 293 288 288 286 286 288 289 290 287 289 288 290
299 299 300 300 300 300 300 301 301 302 302 300 300 297 299 301 300 299 293 286 285 288 287 284 287 291 291 292 292 291 290 291 292 293 289 292 295 295 293 292 287 284 294 297 295 295 296 296 296 294 294 294 299 299 298 296 297 296 296 293 291 291 290 286 290 284 284 288 287 282 276 277 287 293 294 293 292 290 288 289 290 290 290 290 288 288 288
298 299 299 300 300 300 300 301 301 301 302 302 300 295 300 302 297 296 295 290 283 289 288 289 294 294 293 293 292 292 292 294 294 293 293 292 292 294 295 292 290 293 297 295 295 293 290 289 288 290 291 296 297 296 295 294 295 296 297 297 293 288 288 286 285 284 285 285 283 276 275 286 290 291 293 296 294 292 290 287 289 291 291 290 288 288 289
298 298 299 300 300 300 300 301 301 302 302 303 299 299 300 300 296 297 292 286 285 287 292 287 289 291 292 292 292 291 292 291 291 292 291 294 293 292 294 295 296 295 294 294 291 289 284 284 280 282 284 286 285 288 293 293 294 293 293 296 297 293 289 287 284 285 283 283 282 280 286 286 287 287 289 290 287 288 287 282 285 291 293 291 288 289 289
298 299 299 300 300 300 300 301 301 302 302 303 301 300 298 299 298 297 299 293 286 286 286 282 287 289 290 290 288 285 286 285 285 287 294 296 294 296 295 297 296 294 292 290 286 286 282 281 281 279 278 280 278 280 289 289 294 293 292 294 295 293 289 287 285 282 285 282 279 280 280 277 282 288 292 295 295 294 293 288 284 292 292 294 291 289 289
298 299 299 299 300 300 300 301 301 302 302 303 301 300 300 301 301 299 298 294 289 281 286 291 292 291 287 287 289 287 285 281 284 287 288 290 292 293 295 295 295 294 294 291 288 283 282 281 278 276 275 277 283 282 280 286 286 293 293 294 293 292 290 288 286 283 283 283 280 279 278 279 285 287 291 293 296 296 292 287 281 289 292 294 293 291 291
298 298 299 300 300 300 300 301 302 302 303 303 301 300 298 302 300 298 297 295 292 285 290 294 293 290 286 283 287 287 288 284 283 282 284 284 290 293 294 295 294 295 293 287 285 283 283 280 272 278 281 285 279 278 284 281 278 282 289 291 290 288 284 284 284 281 280 282 279 277 281 280 286 290 291 294 294 296 290 280 279 288 292 295 294 292 292
298 298 299 299 300 300 301 301 302 302 303 304 302 299 299 303 303 303 299 293 289 284 286 293 293 286 286 287 285 290 291 289 289 288 283 287 291 290 292 293 291 296 294 286 284 280 279 278 279 278 279 286 287 282 276 281 277 278 280 283 281 282 283 283 281 279 280 280 279 281 282 287 290 290 293 294 295 294 283 278 283 290 293 293 292 290 291
298 299 299 299 300 300 301 301 302 302 303 304 303 301 300 302 303 303 301 296 289 283 290 295 296 293 295 296 291 293 293 293 289 283 282 282 289 295 296 295 294 287 292 284 283 280 280 281 281 275 279 282 284 279 282 277 277 281 282 281 282 281 281 282 282 281 278 277 278 279 282 287 291 292 294 293 290 282 279 286 293 293 292 293 292 290 290
298 299 299 299 300 300 301 302 302 303 304 304 303 297 300 303 304 305 299 293 288 285 289 292 295 293 295 291 288 287 289 290 289 285 283 284 290 292 286 284 288 289 286 285 282 284 280 280 281 281 277 278 283 285 280 282 286 283 283 283 280 280 281 281 281 282 282 281 279 278 276 285 291 291 292 292 285 284 290 292 294 294 292 291 291 290 290
298 298 299 299 300 300 301 302 303 303 304 305 303 299 300 304 303 304 304 299 288 283 286 292 295 293 295 293 293 295 290 290 289 288 290 288 291 285 281 281 285 286 284 282 281 283 281 281 282 281 284 280 283 282 281 278 282 288 289 284 283 285 281 281 281 284 280 278 277 277 283 287 292 291 284 288 290 293 294 292 290 293 292 291 291 290 290
298 298 299 299 300 301 302 302 303 304 304 305 303 300 298 304 306 306 307 300 286 284 288 293 296 294 297 296 295 295 297 296 297 295 290 288 292 287 287 289 290 290 290 288 284 283 284 282 283 280 279 282 283 280 280 274 276 284 288 286 280 288 283 285 281 285 282 280 282 287 290 291 292 292 291 292 294 295 295 293 292 291 291 293 291 290 290
298 298 298 299 300 301 301 302 303 303 304 305 303 297 298 300 302 304 297 293 291 290 294 293 293 293 296 297 299 298 299 300 300 298 294 289 287 290 290 289 291 295 294 290 285 284 284 284 281 282 282 281 280 280 282 279 278 280 280 288 286 290 290 290 288 284 289 290 290 291 291 291 291 293 294 293 294 295 294 293 291 292 292 292 291 291 291
298 298 298 299 300 300 301 302 303 303 304 304 303 299 297 300 302 302 297 291 286 287 287 289 288 287 289 293 297 300 300 301 301 302 301 295 286 287 291 294 295 294 292 294 292 290 285 284 287 285 282 285 286 280 279 279 279 284 284 283 287 291 290 288 285 288 285 279 289 288 289 291 291 292 293 294 294 294 294 292 292 292 292 292 292 291 291
298 298 298 299 300 300 301 302 303 303 304 304 304 303 302 300 302 299 291 287 286 281 283 283 284 292 296 296 297 297 298 301 305 304 303 299 293 289 290 297 297 293 293 295 292 288 283 284 284 283 282 286 290 283 288 284 282 285 281 283 285 285 292 287 287 286 283 282 287 289 291 291 292 292 291 291 292 293 293 293 293 292 292 292 292 292 290
298 298 298 299 299 300 301 302 302 303 303 304 304 298 298 300 303 301 300 296 289 283 282 282 288 297 295 297 297 299 302 301 302 304 303 301 300 300 299 299 298 299 295 294 290 286 283 284 284 283 283 284 289 282 282 286 286 286 284 281 286 290 291 282 286 283 286 288 288 288 289 290 291 292 293 293 293 293 293 293 292 291 290 290 291 292 292
298 298 298 299 300 300 301 302 303 303 303 304 302 299 299 302 302 301 299 295 286 284 282 283 286 292 296 296 297 299 302 302 301 302 303 305 305 303 300 296 293 292 292 290 288 285 285 285 284 284 286 285 289 287 287 285 285 282 281 286 290 288 284 287 286 282 282 282 284 288 282 282 287 290 291 292 293 293 292 292 291 291 290 290 289 289 289
297 298 298 299 300 301 301 302 302 303 303 304 302 300 302 300 301 303 301 297 289 283 283 284 286 290 294 296 298 298 299 300 299 300 300 301 300 299 297 295 292 292 289 288 288 286 285 286 286 285 284 288 287 285 287 286 285 283 282 284 287 286 287 286 283 283 282 286 289 289 289 288 289 290 291 292 293 293 292 291 291 291 291 290 290 289 288
297 298 299 299 300 301 301 302 302 302 303 303 299 300 299 300 300 301 303 304 297 290 283 285 287 288 285 292 298 297 299 299 298 297 297 297 297 297 297 296 293 291 289 285 284 284 284 285 284 285 286 288 287 282 282 281 280 280 282 287 288 288 290 288 288 288 288 290 290 290 289 287 289 291 292 292 293 292 291 291 291 291 290 290 290 290 289
297 298 299 299 300 301 301 301 302 302 303 299 298 290 287 292 296 300 300 303 301 292 284 282 283 286 292 296 294 296 297 297 297 296 294 294 294 293 294 293 292 292 291 286 286 285 285 285 284 286 289 290 285 279 279 282 282 284 288 289 289 290 290 291 292 290 288 292 292 291 291 291 292 292 292 292 293 293 291 291 290 290 290 291 290 289 288
298 298 299 300 300 301 301 302 302 303 301 296 292 285 283 285 294 303 301 300 300 291 283 283 284 285 286 294 294 294 296 296 294 294 294 293 292 292 293 295 292 292 287 286 286 285 283 284 282 285 290 290 284 278 281 282 282 284 287 289 289 289 290 290 291 292 292 292 292 293 293 292 291 291 290 290 291 292 291 291 293 293 291 291 290 289 288
298 298 299 300 300 301 301 302 303 302 296 295 292 289 289 292 299 301 302 301 300 290 284 283 282 282 285 285 294 296 296 295 295 293 291 293 292 294 293 293 290 292 290 284 284 283 284 284 284 286 287 289 287 280 280 281 281 282 287 288 289 290 291 290 291 292 292 292 291 290 289 289 290 289 288 290 291 291 291 291 291 291 293 291 289 289 288
298 299 299 300 300 301 301 302 303 301 295 298 302 302 302 303 303 303 302 300 297 291 286 281 281 282 282 287 292 294 296 291 291 288 290 291 291 289 289 291 290 291 295 288 284 284 285 282 282 284 287 286 283 281 280 279 283 287 288 289 289 290 290 291 291 291 291 292 291 287 286 287 288 290 291 291 291 291 290 290 291 290 289 288 288 287 288
298 299 300 300 301 301 302 303 303 303 302 298 297 299 301 305 303 304 300 302 294 292 284 282 281 280 282 287 287 292 295 285 287 285 284 291 290 288 286 287 287 284 287 285 285 284 285 284 284 283 285 284 280 280 280 282 286 287 288 287 288 288 289 290 290 289 290 289 290 291 290 290 290 290 290 290 289 290 291 291 289 288 287 288 287 287 287
299 299 300 301 301 302 302 302 296 298 297 297 299 298 300 305 303 302 305 293 285 285 282 283 282 280 282 281 280 288 294 289 286 286 284 288 289 288 286 283 283 282 285 288 282 281 284 284 285 282 281 280 278 280 279 284 286 286 287 287 288 289 289 288 288 288 288 288 288 288 289 290 290 289 289 289 289 289 289 289 289 288 287 286 287 286 286
299 300 300 301 301 301 297 300 296 296 294 295 294 302 306 306 305 301 302 300 292 284 280 282 280 280 279 279 280 285 292 287 288 288 288 283 286 290 285 283 283 285 287 281 281 280 283 287 283 280 276 277 279 279 283 286 286 287 287 287 287 288 287 287 287 287 288 288 288 289 290 290 290 289 289 289 289 289 289 289 287 288 287 286 286 286 286
300 300 301 301 298 296 292 292 298 298 296 298 302 305 305 304 302 300 298 296 299 295 285 281 283 283 282 282 281 285 288 283 283 283 283 282 284 282 282 281 281 283 280 281 281 281 285 288 282 279 277 278 279 284 286 287 287 287 287 288 289 289 288 288 288 288 287 288 289 289 289 288 288 288 288 289 289 289 288 287 287 287 286 286 285 286 286
301 301 294 292 292 285 287 288 296 300 305 305 303 295 291 292 286 285 286 285 289 295 285 284 280 283 284 282 282 288 285 282 283 281 283 283 282 284 282 282 283 283 279 281 284 288 281 280 279 278 279 283 284 285 286 287 288 289 289 289 289 290 289 289 289 288 286 285 285 285 286 287 287 287 288 288 288 287 288 288 288 288 288 288 287 287 287
299 293 292 294 289 285 286 293 299 303 301 299 294 286 285 285 283 282 282 285 284 285 285 283 283 283 282 282 284 289 287 282 281 279 279 283 282 281 281 281 282 281 281 279 283 286 279 280 276 275 278 281 283 285 287 288 289 290 290 290 290 289 290 289 290 289 288 287 287 287 288 287 287 287 288 288 287 288 288 288 288 287 288 288 287 286 287
292 291 289 286 286 289 294 298 303 299 294 288 287 284 283 284 283 280 283 282 281 282 284 284 285 284 286 287 286 285 289 283 279 280 279 282 285 280 282 281 283 279 276 274 279 283 278 274 277 274 277 281 282 286 286 289 289 287 288 288 289 289 289 289 289 289 289 287 289 290 290 291 290 289 288 288 287 287 287 287 287 287 287 287 287 287 287
293 291 288 286 290 293 294 297 296 292 286 283 282 282 281 282 283 283 282 280 280 283 284 286 286 287 289 286 284 282 289 290 286 284 280 281 285 283 280 278 281 278 276 276 282 282 278 276 275 274 277 280 283 284 286 287 287 287 288 288 288 288 289 289 289 288 288 288 288 290 291 291 289 288 288 288 289 288 286 286 287 288 287 287 287 287 287
292 291 292 293 294 295 294 290 287 284 282 284 280 279 280 280 282 283 282 280 280 281 286 284 283 284 286 287 287 286 285 289 284 282 281 281 284 280 280 280 280 275 273 279 282 281 277 273 274 275 279 283 285 285 287 286 287 287 286 287 287 287 288 289 288 288 288 289 288 288 288 289 288 288 288 288 287 287 287 287 287 286 287 287 288 287 287
299 299 296 293 292 287 286 283 284 282 277 278 275 278 279 279 280 279 281 282 284 284 285 290 288 288 291 289 289 288 287 290 285 283 280 280 283 281 278 278 277 275 278 283 280 278 273 272 273 277 283 284 285 286 287 287 287 287 286 286 286 286 287 288 289 288 288 290 289 288 288 289 289 288 289 290 289 288 287 287 288 288 288 289 288 288 287
294 295 292 289 284 285 284 278 284 282 278 278 277 275 277 277 279 279 280 282 282 285 286 285 285 285 284 286 284 285 284 286 285 282 281 281 280 277 276 275 277 278 280 279 278 274 273 275 278 283 284 285 287 286 286 287 287 287 287 286 286 287 288 287 287 287 287 288 289 288 288 288 287 288 289 288 289 288 286 287 288 289 289 289 288 288 287
287 285 282 279 278 281 280 273 279 278 275 276 280 278 276 275 277 276 278 281 284 285 286 286 286 286 284 286 285 285 284 283 283 281 279 280 277 278 276 277 279 279 276 273 275 275 277 276 280 283 284 285 286 287 287 287 287 287 287 286 286 287 288 287 286 287 287 287 287 287 286 287 287 287 287 288 288 289 289 289 288 288 288 289 288 288 288
283 281 278 276 275 277 279 276 276 275 279 280 279 278 277 278 280 280 283 285 286 286 287 286 286 285 283 285 283 283 282 281 280 281 282 279 276 276 279 280 279 276 275 274 272 270 273 278 281 284 286 286 286 287 287 288 287 287 287 286 285 286 287 288 287 287 287 287 286 287 287 287 288 288 289 289 290 289 289 289 288 289 287 287 288 289 289
286 284 282 279 275 278 280 277 276 278 279 279 279 281 283 285 284 284 284 288 288 287 287 287 286 285 284 284 284 284 283 282 279 281 280 276 277 279 282 278 274 273 271 270 269 271 274 279 283 285 286 287 287 287 288 287 287 287 287 286 286 286 287 287 287 287 286 287 286 286 288 288 287 289 289 289 288 289 288 288 288 289 289 289 288 288 289
282 284 281 274 273 277 278 279 279 280 281 283 281 283 285 285 286 287 288 288 288 288 288 286 285 284 284 284 283 281 282 281 279 281 281 280 280 277 273 273 273 274 273 271 270 274 279 283 284 285 287 288 288 288 287 287 287 287 287 287 287 287 287 286 286 287 287 287 286 286 287 287 288 288 288 288 287 288 289 290 289 288 289 288 288 288 288
286 283 279 277 279 280 279 279 281 281 280 282 282 283 285 286 285 286 289 288 289 289 289 287 282 282 282 282 280 281 280 281 277 277 280 277 274 271 270 269 271 272 274 273 274 279 284 285 286 288 288 288 288 289 288 288 288 287 287 288 287 287 287 287 286 286 286 287 287 287 286 286 287 287 287 287 288 288 289 289 290 290 289 289 288 288 287
284 281 283 282 281 280 279 280 282 279 279 282 284 283 284 285 286 288 287 288 288 287 286 286 284 282 282 281 279 279 279 280 279 280 276 273 273 275 274 271 271 272 273 276 279 281 285 286 287 288 288 288 288 288 287 287 287 288 288 288 288 288 288 287 286 287 287 287 287 287 286 288 288 287 288 289 289 289 289 289 289 289 289 288 288 288 288
284 284 281 281 281 278 281 279 278 279 281 284 284 286 285 285 285 288 289 288 289 285 282 282 282 281 280 278 277 274 278 281 280 277 275 274 277 274 271 271 271 274 275 280 285 286 287 288 288 288 288 288 288 288 288 288 288 289 288 289 288 289 288 287 288 287 286 286 286 287 289 288 288 289 289 288 288 287 288 288 288 288 289 288 289 289 288
281 280 280 281 282 281 282 281 281 282 281 283 284 287 287 288 288 290 291 289 285 284 282 282 281 280 276 276 277 280 282 280 278 278 277 277 278 275 273 273 275 278 283 284 285 286 287 288 289 288 288 288 288 288 289 289 289 289 289 289 289 288 287 287 288 287 287 286 285 287 288 288 287 287 288 288 287 287 288 288 288 289 289 289 289 289 289
Wind_Speed
12 11 11 11 13 12 11 12 14 13 14 6 5 5 3 1 1 2 2 5 4 6 1 1 0 2 3 4 9 8 8 5 6 4 4 3 1 2 2 0 3 1 2 2 3 4 3 4 4 4 6 5 4 4 3 6 6 4 3 1 1 6 1 3 2 3 1 4 9 15 11 6 6 4 4 5 2 2 7 6 6 6 1 3 2 4 3
11 11 12 12 12 10 10 13 13 13 12 6 5 2 2 3 2 4 3 1 2 4 2 1 2 3 5 5 8 8 8 6 2 3 3 3 3 1 2 5 3 0 4 1 4 6 3 4 5 3 2 3 5 6 8 9 4 4 1 1 3 2 1 3 2 1 3 2 4 8 5 6 4 2 6 4 2 2 2 6 2 7 2 4 7 6 3
11 10 11 12 11 9 11 12 13 13 13 10 3 2 3 3 1 1 4 2 3 3 2 1 0 2 2 3 5 4 2 4 3 1 3 2 4 1 3 0 1 3 2 3 5 9 5 2 5 4 3 3 2 7 8 9 7 3 3 1 0 7 0 2 4 5 4 4 4 2 2 1 1 3 11 9 9 4 1 3 2 5 0 6 5 4 2
10 10 10 11 10 9 10 12 12 12 11 10 3 2 3 1 2 1 1 1 1 2 1 1 2 4 2 2 6 2 1 2 3 4 1 5 4 3 0 4 4 4 6 5 6 7 8 5 1 4 3 1 4 5 6 10 4 6 11 9 4 2 2 3 4 8 7 4 3 0 4 4 7 5 12 12 6 6 5 5 6 5 3 6 2 9 11
8 8 10 11 8 9 9 12 11 10 10 10 4 3 3 3 1 2 1 1 2 3 1 2 2 3 2 1 1 2 0 1 1 4 2 3 4 2 3 3 4 3 4 1 4 3 6 7 8 4 2 1 1 4 6 6 10 8 5 9 4 5 7 7 11 10 7 5 6 4 10 12 7 10 9 12 13 5 7 4 3 5 10 5 1 9 9
8 8 10 10 8 8 10 11 11 9 10 12 3 3 3 1 1 1 2 2 3 3 6 6 7 7 1 4 1 2 3 4 1 3 1 1 4 2 6 6 3 1 2 1 1 2 4 3 2 1 3 1 5 4 7 8 8 5 2 4 5 5 5 4 10 10 11 9 10 12 14 11 9 11 11 13 10 16 11 4 2 1 4 10 9 12 10
8 8 10 10 8 8 10 11 11 10 10 8 2 2 3 1 1 2 1 0 2 4 4 1 4 6 3 3 0 2 3 3 1 1 2 3 3 3 0 3 7 5 2 3 1 1 2 3 2 1 2 3 2 3 3 3 7 7 3 5 2 6 5 3 9 11 8 6 6 10 16 10 14 12 11 9 13 12 11 11 9 4 4 14 14 13 12
7 8 10 9 8 8 9 10 12 10 12 6 3 3 1 1 1 2 3 2 3 2 1 2 1 3 4 1 1 1 0 1 4 4 4 1 2 2 4 4 8 10 10 8 5 2 4 4 2 0 3 2 2 0 1 1 3 5 4 1 5 4 0 1 2 5 4 3 5 9 12 13 12 11 12 10 8 12 11 9 9 13 15 13 14 14 10
7 8 9 8 7 8 9 10 11 11 8 2 3 2 4 2 1 1 4 3 3 0 1 2 2 0 2 1 2 3 1 0 2 0 0 1 1 2 2 3 7 7 10 9 5 2 4 5 3 1 1 2 3 2 1 2 2 3 3 2 4 6 3 0 2 6 2 0 7 10 13 16 15 13 13 12 9 8 8 6 5 3 11 12 12 8 4
7 8 9 8 7 8 9 10 10 10 7 3 2 3 2 3 2 1 1 1 3 1 2 1 4 3 4 3 2 1 2 2 1 2 5 5 3 2 8 4 10 4 8 6 3 2 2 2 2 1 2 2 1 1 4 3 3 2 2 0 4 1 6 4 3 8 1 3 1 3 3 7 8 8 9 7 7 7 6 9 11 8 2 6 6 4 4
8 8 9 9 7 8 8 9 10 10 6 3 3 3 3 3 4 4 1 1 4 1 2 2 5 4 2 2 1 3 5 7 3 4 0 3 6 5 6 7 8 4 4 2 3 2 0 0 2 1 4 2 2 3 6 7 5 4 4 3 1 4 7 4 2 4 5 4 2 2 4 4 1 2 7 2 2 5 11 6 8 11 8 5 5 6 6
8 8 8 8 8 8 8 9 10 11 6 3 3 3 2 3 4 3 0 0 5 2 1 3 6 1 2 3 4 2 4 5 3 3 4 1 1 3 6 5 8 4 1 3 2 5 3 3 3 3 3 5 8 10 9 8 6 4 2 6 4 6 7 5 2 4 4 4 3 2 4 1 1 1 3 10 10 14 15 11 10 9 10 11 10 9 9
8 8 8 8 9 8 8 9 9 9 8 4 3 4 2 5 3 3 2 0 3 4 6 5 2 3 4 5 3 2 5 2 2 2 3 4 4 5 1 2 3 2 2 2 4 3 3 1 1 0 2 4 6 11 12 11 10 9 8 3 8 6 7 4 3 3 3 3 1 3 1 4 4 3 3 1 6 4 9 12 11 8 6 8 10 9 10
8 6 8 8 8 8 9 8 9 8 9 5 5 4 4 4 3 2 1 1 4 3 2 3 5 6 4 4 2 2 2 3 1 2 2 1 3 4 3 2 1 3 3 4 3 2 3 4 1 1 2 4 4 5 2 5 9 12 10 8 1 9 4 6 4 2 5 2 4 6 5 4 2 2 2 2 0 0 2 5 5 7 4 5 9 9 9
7 7 8 9 9 9 9 9 8 8 8 7 5 4 6 6 6 3 3 1 1 5 1 5 1 3 4 2 3 4 4 2 4 2 1 1 2 1 2 1 1 2 4 4 2 4 3 2 1 3 1 3 2 1 2 2 1 6 5 5 5 1 5 4 7 1 3 7 4 4 1 3 3 2 2 3 2 1 0 5 3 3 6 2 8 9 9
8 8 9 9 9 10 10 10 9 9 8 9 5 6 8 7 6 5 4 1 1 5 6 3 3 2 3 2 3 4 2 1 1 0 0 1 1 2 1 2 2 3 3 3 1 2 1 2 2 3 2 2 1 2 0 1 2 5 5 6 8 7 7 5 7 5 4 4 6 3 4 1 2 1 4 6 3 3 2 3 3 1 3 1 5 7 8
9 9 9 10 10 11 11 11 10 10 9 9 5 6 8 6 9 7 4 3 1 1 7 2 3 5 6 4 6 5 1 1 2 1 1 1 0 3 1 2 1 3 3 3 3 2 2 3 1 3 0 1 2 3 1 2 1 3 7 6 10 9 5 4 6 4 2 5 3 3 1 2 1 4 5 5 5 1 1 2 2 0 3 2 5 5 5
9 9 9 10 11 12 12 12 12 11 10 9 6 7 7 3 7 6 3 3 0 3 4 4 4 5 3 2 1 2 2 3 3 1 2 2 2 2 1 1 2 3 3 2 0 3 2 2 3 2 1 2 1 3 1 3 1 1 1 1 2 4 3 5 5 4 6 7 4 3 1 1 1 4 6 6 5 1 1 3 3 1 4 5 7 6 5
10 9 9 10 11 13 13 13 12 12 12 11 6 7 9 8 8 7 3 0 1 2 6 4 2 3 1 3 2 1 1 1 2 2 2 4 1 2 1 1 2 1 5 2 3 2 2 0 1 2 3 2 4 2 0 2 1 1 1 2 4 3 2 1 3 5 4 2 5 3 2 0 4 4 3 3 1 4 3 2 2 6 8 6 8 9 7
10 10 10 11 12 13 14 14 14 13 13 12 6 6 10 6 7 10 6 2 1 1 3 2 2 6 2 4 3 3 2 6 2 6 2 2 3 2 3 3 4 3 3 3 2 0 3 2 1 1 3 1 0 3 4 1 2 1 1 0 3 1 2 2 3 0 2 2 5 3 3 1 6 6 2 3 1 1 3 7 8 8 9 9 8 8 8
10 11 11 12 13 14 14 15 14 14 14 13 8 6 7 4 5 8 8 3 1 3 3 4 2 4 2 4 4 5 5 4 2 3 4 2 1 3 3 3 2 1 2 2 5 0 2 1 1 1 1 3 1 4 5 4 2 4 2 1 3 1 2 2 1 1 4 2 2 2 1 3 6 1 3 2 4 4 5 8 9 7 7 7 8 8 8
11 11 12 13 14 14 15 15 16 15 15 14 11 2 4 7 3 4 7 4 2 2 3 1 1 3 2 4 5 5 7 7 5 5 4 2 2 3 5 5 2 2 1 3 3 1 2 2 1 2 3 1 3 2 2 4 2 1 5 4 3 7 0 0 7 3 1 3 4 6 6 5 6 8 8 8 7 6 7 8 8 8 7 7 8 9 8
12 11 12 13 14 15 15 16 16 16 15 14 8 1 5 6 8 2 5 3 1 1 4 4 4 3 2 1 1 3 4 3 4 3 3 6 2 2 4 3 0 1 1 1 4 5 4 5 2 4 4 2 5 4 6 2 2 2 3 5 6 3 9 8 12 9 13 12 8 7 7 7 8 8 7 10 9 8 8 9 9 6 7 5 8 8 8
12 11 12 14 15 15 16 16 16 16 16 15 8 4 5 5 6 5 4 6 4 2 4 5 5 1 1 0 1 1 3 2 1 1 2 6 4 0 2 1 2 2 1 1 5 6 4 3 3 2 5 1 4 4 4 5 3 4 7 2 1 3 2 1 9 9 3 6 4 9 8 8 10 10 10 9 8 8 8 9 8 8 8 8 7 8 7
12 12 12 14 15 16 16 16 17 16 16 16 12 5 5 5 4 1 3 3 1 1 3 1 1 4 1 2 1 1 2 1 2 3 3 4 6 6 4 1 2 6 5 3 2 7 4 5 2 2 7 1 4 4 2 7 3 2 6 3 2 4 1 10 8 8 6 7 6 7 9 8 8 7 9 10 9 10 8 7 8 8 7 6 7 7 7
11 11 12 14 15 16 16 17 17 16 16 17 11 4 1 3 5 1 7 4 2 4 4 1 1 2 1 2 1 0 1 2 1 4 3 4 4 7 6 1 4 4 3 2 7 6 4 5 4 2 6 4 4 4 2 0 6 3 6 3 3 6 2 4 4 9 9 12 9 9 10 10 9 9 8 8 8 10 10 10 10 9 9 8 7 5 6
12 12 13 14 15 16 17 17 17 17 17 16 7 4 3 4 4 5 3 1 4 3 4 2 2 3 2 4 2 1 1 3 4 6 6 6 7 6 7 5 7 6 6 6 4 5 4 5 5 6 4 4 2 3 3 6 4 4 3 3 6 8 8 9 12 14 8 6 10 9 10 6 6 7 8 8 7 9 10 9 9 9 9 8 8 6 4
12 11 13 14 15 16 17 17 17 19 18 17 6 3 2 3 4 4 3 2 1 5 4 1 3 1 2 7 6 5 6 4 4 6 5 7 9 9 8 6 4 6 5 7 8 7 6 10 8 2 3 1 6 6 3 3 4 6 5 2 0 8 11 8 8 6 9 10 11 1 9 11 8 9 7 6 6 7 8 8 8 7 7 7 8 7 5
11 12 13 15 15 16 17 17 18 17 20 14 3 2 3 1 2 6 5 3 4 6 4 1 2 5 4 1 3 9 8 11 9 8 7 8 9 7 8 7 6 3 4 5 5 4 5 3 2 4 4 3 6 3 4 5 3 5 2 4 6 3 4 5 8 11 11 9 7 8 9 11 9 8 7 6 5 7 9 8 8 8 7 7 7 7 7
12 13 14 15 16 17 17 17 17 17 17 7 2 4 4 2 3 4 5 3 2 3 4 3 5 0 3 2 4 5 8 11 11 12 11 8 8 7 6 7 7 5 6 4 4 6 2 4 2 2 3 3 5 2 5 2 7 5 4 9 9 9 9 8 7 11 11 11 9 7 11 11 9 8 7 5 5 7 8 8 7 6 5 6 7 5 4
13 13 15 16 17 17 18 17 16 16 12 3 3 3 2 2 2 1 6 5 4 3 3 4 3 1 3 1 2 7 7 9 9 9 8 6 5 4 3 8 6 5 8 6 7 2 2 4 2 4 4 5 4 4 4 6 8 5 4 9 10 10 10 10 9 11 12 10 10 9 9 9 6 6 5 5 6 6 5 4 5 7 6 5 5 5 4
13 14 15 17 17 17 17 16 15 10 5 3 3 2 3 2 2 7 7 4 3 4 3 4 2 3 0 3 2 2 4 4 3 3 3 3 7 6 9 7 4 3 4 6 3 5 4 2 5 3 6 5 6 3 4 5 9 7 5 9 8 10 10 10 10 10 10 10 12 12 10 9 9 9 7 7 7 7 8 8 7 6 7 5 4 3 4
13 14 16 16 17 17 17 16 14 9 5 6 9 9 12 15 15 11 4 4 2 1 3 4 3 1 2 1 3 4 3 4 6 4 4 3 4 4 6 4 4 6 5 7 4 4 1 3 2 7 5 4 5 3 5 5 7 8 10 9 8 9 10 9 9 9 10 11 9 10 11 10 9 9 10 9 9 8 7 7 5 4 4 4 3 2 1
13 14 16 17 17 17 17 16 15 11 2 1 2 1 2 7 5 7 1 0 2 1 3 2 1 2 0 3 6 2 2 4 2 3 5 3 1 6 2 4 5 6 6 6 1 5 3 4 7 5 3 5 4 5 6 4 5 8 7 5 6 6 7 8 8 9 8 8 7 9 9 8 8 8 8 7 6 6 6 5 5 5 5 5 5 6 5
14 16 16 18 17 17 17 12 5 2 0 1 1 3 1 4 5 4 1 1 2 1 2 1 2 4 1 2 2 2 0 5 3 1 6 1 3 4 2 6 3 7 2 3 5 2 4 1 3 6 5 2 4 4 3 6 8 6 6 7 7 9 9 9 7 8 7 6 6 6 8 10 11 9 9 8 7 7 8 6 7 7 6 5 6 5 3
15 17 17 18 18 11 4 0 1 1 1 0 2 3 5 8 5 3 2 1 3 3 2 1 2 3 4 5 4 1 1 3 1 1 1 1 3 3 4 3 7 2 0 4 3 4 5 1 4 3 1 5 1 2 7 10 11 9 9 9 8 9 8 10 9 8 8 8 9 9 11 10 11 9 8 8 7 6 8 7 5 5 6 5 4 1 2
16 17 17 14 5 1 1 1 1 1 1 3 5 7 8 4 0 2 2 2 2 2 3 2 3 3 4 3 0 1 4 5 1 4 1 3 2 1 4 3 5 0 5 3 3 4 1 1 6 4 3 4 4 4 7 8 9 9 7 7 7 9 9 8 8 9 9 8 10 11 11 10 7 6 7 8 8 7 5 5 6 6 5 4 3 4 7
16 12 2 2 1 2 1 1 0 1 3 5 4 3 5 7 0 3 3 2 1 3 2 3 2 1 1 5 3 1 4 1 2 3 1 0 3 1 1 3 1 3 3 2 1 3 3 4 2 3 1 1 0 3 5 7 7 7 9 8 8 8 8 7 8 9 7 6 5 6 7 8 8 6 8 6 5 6 7 7 7 7 6 6 6 6 7
5 1 1 1 2 0 1 1 3 5 1 3 3 1 2 1 2 1 0 0 1 1 1 4 3 1 5 4 0 3 5 5 3 3 3 2 3 0 1 5 1 4 1 3 1 3 3 2 2 3 3 1 3 1 3 8 7 8 9 9 9 7 8 7 8 9 8 8 8 7 8 10 10 7 6 8 6 6 6 6 5 4 6 5 5 5 7
2 2 1 1 1 2 5 7 7 2 2 1 2 3 1 1 3 1 1 2 1 1 1 2 2 3 4 8 6 1 1 5 3 1 2 1 0 4 1 3 0 4 1 2 2 2 6 3 1 3 2 0 3 1 6 8 9 5 5 5 6 6 6 6 4 4 6 4 4 5 7 10 10 9 8 7 5 5 4 4 3 5 4 5 5 7 7
4 2 3 1 3 3 5 7 5 2 1 1 2 1 1 1 1 1 1 1 0 1 1 3 1 3 1 3 4 3 2 3 1 4 4 2 1 3 3 1 1 3 0 1 1 2 2 3 1 3 5 3 4 4 6 7 7 5 5 7 7 7 7 6 5 5 6 5 5 7 8 9 8 7 6 7 6 5 5 5 5 6 6 5 5 5 5
1 1 1 2 3 4 4 2 2 1 2 0 2 0 1 1 1 2 1 2 1 0 2 2 4 4 3 3 3 4 1 1 2 2 2 2 1 2 1 0 1 3 1 2 2 2 2 2 2 2 4 4 4 4 8 8 7 7 6 6 7 7 9 8 7 4 5 8 7 6 6 8 8 6 7 6 5 5 5 5 5 4 5 4 5 6 7
10 7 3 2 1 1 0 1 2 1 1 1 2 1 1 1 2 3 1 1 1 2 1 1 2 1 1 3 4 1 2 0 1 1 2 1 1 2 2 1 1 2 2 1 2 2 2 2 4 6 6 6 5 7 7 8 6 6 5 5 5 5 8 10 10 7 6 10 9 8 7 9 8 7 6 8 7 5 3 4 6 5 5 6 6 7 7
0 2 1 1 1 1 2 1 1 2 2 0 2 3 1 1 0 1 1 1 0 1 1 7 3 5 3 2 3 1 1 3 3 2 2 0 2 1 1 1 1 1 0 3 1 2 3 2 6 9 8 5 5 7 8 7 7 6 5 5 5 8 9 7 6 8 6 6 7 6 7 6 5 5 5 6 8 7 4 3 2 6 6 6 6 6 7
1 1 1 2 1 1 2 2 2 2 2 2 1 2 2 5 4 2 3 4 2 4 1 6 6 6 4 1 3 2 1 1 1 3 1 1 2 1 2 1 1 1 2 3 1 1 1 1 1 5 7 8 8 8 7 7 7 8 7 5 7 9 10 8 6 7 7 7 7 6 5 5 5 4 5 5 5 6 7 5 3 4 5 6 5 5 5
1 1 1 3 2 3 1 0 0 0 1 2 2 5 4 5 5 3 5 1 4 4 8 5 6 7 4 1 5 2 0 2 3 0 0 2 3 0 1 0 1 2 0 1 2 4 7 6 8 10 10 10 9 8 8 7 5 6 9 8 7 8 8 8 6 6 6 6 5 6 5 6 7 7 6 7 7 5 5 5 5 5 4 4 5 6 6
0 0 1 1 2 1 1 1 2 3 3 2 5 6 7 7 6 4 2 2 6 5 6 3 5 5 6 1 2 2 2 1 2 1 2 2 1 1 1 2 1 1 3 2 2 2 2 4 8 9 10 10 9 8 8 7 6 7 7 6 6 7 7 9 7 7 5 6 6 6 7 7 6 7 7 6 5 5 5 4 4 5 6 5 4 2 1
1 1 1 1 2 1 1 4 2 2 2 3 4 5 5 2 1 2 2 2 7 6 6 5 6 4 4 2 5 2 0 1 2 2 1 1 1 2 1 0 0 1 2 4 4 5 5 8 9 10 10 11 11 10 8 7 6 7 7 7 7 8 7 7 7 7 6 6 6 6 6 7 8 7 7 7 5 4 5 5 5 5 5 4 4 2 3
1 0 1 2 1 1 2 4 1 1 6 5 3 1 2 2 4 6 3 3 7 8 7 7 3 4 1 1 2 2 1 1 3 1 1 2 1 2 2 1 1 1 3 3 4 5 10 11 9 11 12 12 10 10 9 8 8 8 8 9 8 9 8 7 5 4 4 5 5 5 4 5 6 6 5 5 6 4 4 5 4 4 4 4 5 5 3
1 1 0 0 2 2 2 0 0 3 7 3 1 3 4 4 3 3 3 6 5 6 3 5 3 5 1 2 1 1 0 0 2 0 2 0 1 1 2 0 2 3 2 2 3 4 7 9 10 11 12 12 10 10 9 7 8 8 7 8 8 8 8 8 6 7 7 6 6 6 5 7 6 5 7 8 7 5 4 3 4 4 3 3 4 4 4
0 0 2 3 3 2 0 0 1 1 1 4 4 5 5 5 5 4 1 5 4 5 5 2 1 2 1 2 1 1 1 0 3 1 3 2 1 2 3 2 3 5 4 3 5 10 10 10 12 12 11 11 9 9 9 9 9 8 8 7 7 8 7 7 8 7 7 6 7 9 8 6 6 7 6 5 4 3 2 2 4 4 4 4 4 5 4
1 1 1 3 1 3 4 4 2 6 4 3 4 3 4 5 3 3 1 8 6 7 3 1 2 2 2 1 2 1 0 2 0 1 1 2 2 2 2 5 4 6 6 7 6 7 8 8 10 12 12 11 10 9 9 9 9 8 8 9 8 8 6 6 7 6 5 5 5 6 6 5 4 4 4 4 4 5 5 5 4 4 5 4 3 2 2
Wind_Direction
319 317 322 329 325 322 326 329 332 330 331 333 350 312 272 234 270 255 53 174 178 86 68 265 316 251 253 281 285 278 266 246 286 350 355 5 60 23 48 96 43 358 51 332 1 35 77 49 79 139 90 69 25 297 10 73 52 56 5 27 297 83 75 155 287 305 316 83 65 59 25 48 36 15 17 40 83 172 165 175 183 120 348 60 46 66 196
320 322 315 326 324 325 329 325 328 330 332 327 328 303 294 314 348 344 291 209 143 85 165 215 275 274 276 268 264 270 258 276 343 354 349 27 346 77 22 4 43 99 9 23 4 20 97 29 100 64 71 84 345 13 58 74 52 53 260 108 267 94 306 118 63 355 339 347 338 6 355 49 78 20 330 318 324 58 117 99 58 83 314 174 115 146 177
320 315 313 323 321 324 325 320 327 328 329 331 338 303 323 306 328 198 292 347 106 173 200 128 236 272 304 295 284 278 266 196 171 121 344 348 20 39 37 60 23 45 27 52 36 30 77 131 21 107 65 101 339 10 49 73 82 52 56 105 271 89 301 95 145 163 182 212 176 262 321 3 356 39 342 359 20 1 39 125 26 104 278 86 104 108 104
316 313 318 322 321 320 319 320 322 325 326 332 304 279 280 174 108 298 325 325 132 275 261 239 220 272 272 310 263 228 322 334 44 40 34 44 9 81 212 3 57 42 42 30 35 40 33 72 338 45 27 5 30 351 16 60 78 45 38 18 71 91 41 73 148 157 179 185 182 262 147 42 55 329 17 353 352 5 95 95 90 140 162 78 341 143 128
310 307 325 322 322 319 320 318 323 325 324 332 324 273 253 319 123 131 234 340 200 238 285 243 191 224 209 253 276 326 36 271 346 0 65 357 16 9 43 51 46 343 61 67 71 55 67 44 69 30 106 19 114 8 33 40 25 26 41 355 76 59 63 8 73 70 93 82 78 84 90 97 63 52 12 14 21 18 60 85 146 159 102 38 126 119 102
311 317 327 322 321 319 320 318 320 325 322 327 301 268 225 140 286 324 208 136 217 206 279 215 236 252 284 260 306 349 21 23 34 330 51 30 30 80 339 24 354 336 157 119 77 61 62 34 73 6 12 17 349 23 3 52 357 34 45 354 90 116 90 353 80 70 78 77 92 90 73 69 79 66 46 36 25 43 53 7 323 80 140 158 154 115 105
310 312 325 320 321 321 318 319 324 329 321 324 251 265 233 244 224 238 254 118 252 169 219 284 232 263 210 268 216 16 60 26 255 177 340 30 342 80 94 327 353 356 79 108 108 35 77 0 344 124 8 31 17 18 342 12 28 51 56 26 68 88 47 56 94 85 56 65 85 95 99 84 59 49 52 48 49 50 53 52 29 64 95 123 114 99 95
309 321 321 318 320 318 321 327 328 330 326 312 238 248 330 114 84 318 335 271 277 269 311 261 203 252 254 203 293 146 111 41 353 9 68 12 342 38 81 46 36 40 53 68 72 341 139 159 127 299 107 349 68 89 173 256 346 58 46 46 332 107 58 247 107 83 50 35 71 74 87 88 72 41 39 36 45 47 35 50 42 66 69 75 87 94 92
313 319 320 319 318 324 328 328 329 328 336 303 248 277 206 298 313 342 317 329 270 293 189 260 201 195 311 82 287 57 0 141 174 151 350 145 176 109 133 116 60 43 59 61 75 94 113 105 76 190 140 106 217 116 278 118 69 29 45 32 349 56 162 165 76 95 92 263 96 102 92 82 72 41 25 23 27 43 17 36 341 44 120 111 97 82 100
314 327 322 323 326 328 329 332 332 333 330 273 289 256 359 317 300 247 169 265 277 303 278 259 102 219 232 157 236 112 306 253 109 47 6 26 24 105 136 124 87 34 55 43 20 337 90 83 128 140 236 191 134 145 164 137 136 116 92 108 77 97 130 90 75 87 171 234 218 126 89 70 45 9 343 355 71 100 84 43 39 32 69 95 104 111 102
318 321 327 324 325 327 330 332 336 335 348 351 344 314 359 7 334 343 328 187 317 188 222 256 136 217 158 178 89 53 54 42 52 115 292 4 20 44 100 103 100 115 67 0 308 266 253 180 78 77 35 73 106 83 78 53 61 118 138 76 62 93 97 102 125 112 156 189 276 335 51 75 202 291 313 315 87 96 70 46 40 35 61 86 77 101 99
319 315 320 328 328 330 332 334 333 330 339 323 315 289 290 282 282 253 176 71 270 267 151 212 169 131 119 141 122 100 75 80 84 132 116 85 335 13 78 80 96 78 247 248 332 3 1 18 25 27 45 36 75 77 72 67 28 31 110 126 134 125 105 112 98 104 134 156 202 64 91 160 137 320 54 84 92 84 80 61 56 73 86 94 94 99 98
328 316 313 322 328 333 334 331 329 323 327 316 304 286 320 345 325 302 293 180 258 325 10 314 304 114 155 100 81 118 138 125 121 76 96 103 2 11 25 122 109 172 200 98 41 46 75 71 344 253 37 67 41 57 40 40 26 15 23 88 126 146 129 139 75 116 69 88 282 122 189 130 165 128 56 150 105 91 79 58 33 42 79 107 110 116 117
328 318 315 323 327 331 330 328 323 322 311 314 290 281 290 297 273 288 230 99 293 259 233 312 35 81 66 87 111 357 64 71 216 114 70 350 102 76 41 67 126 178 129 94 67 71 34 33 40 17 327 6 2 31 324 47 54 38 15 5 65 150 114 111 83 4 128 76 46 80 109 110 65 17 4 11 309 342 123 107 33 20 30 114 125 129 133
332 325 323 323 326 328 331 327 324 318 312 301 280 284 271 248 235 235 279 293 249 283 185 82 306 114 105 98 93 52 40 329 52 346 195 173 112 151 140 80 280 101 67 74 12 40 126 97 61 96 350 77 136 217 351 27 28 44 23 12 41 91 154 200 109 347 96 126 104 106 105 192 205 176 304 332 285 166 179 102 108 10 0 116 139 145 150
334 329 323 322 327 330 329 328 324 320 314 314 278 271 264 233 217 236 268 264 334 28 339 274 231 78 89 75 99 117 151 73 114 20 349 328 123 49 30 108 18 58 60 68 98 92 88 107 186 85 163 181 220 97 252 0 356 328 357 14 46 27 66 102 108 131 81 109 121 147 176 237 105 292 322 320 317 179 181 80 89 306 334 19 139 149 165
334 327 322 323 328 329 328 326 325 323 322 315 304 286 271 206 196 199 206 231 139 216 256 297 105 81 63 358 17 34 77 96 157 98 306 303 234 113 43 7 335 63 78 71 11 64 41 52 88 122 105 129 87 182 106 67 71 325 333 3 34 42 2 38 76 105 132 129 92 128 69 195 86 327 318 319 330 252 169 157 207 283 324 65 102 107 117
333 324 322 323 328 330 327 328 327 327 322 312 287 286 264 210 202 187 236 231 103 292 299 325 62 62 83 178 166 270 51 17 25 14 123 266 56 75 196 43 36 340 108 80 50 62 69 92 111 121 112 268 145 64 141 155 86 218 341 338 29 11 16 38 129 114 96 96 98 95 93 52 5 318 307 318 295 253 145 208 136 175 89 80 90 82 67
334 324 322 327 331 331 328 327 327 326 324 319 304 280 254 218 199 200 248 300 108 29 326 353 93 114 139 61 106 78 108 144 159 95 328 15 11 292 83 138 111 101 359 137 67 104 115 357 48 117 117 331 34 143 163 52 230 334 27 41 42 21 67 16 59 70 108 123 90 120 77 139 322 289 284 295 161 164 193 144 157 111 97 79 87 87 75
332 326 325 329 333 330 328 328 328 326 325 325 322 270 272 262 194 184 175 192 131 144 328 354 49 65 23 97 54 40 13 27 44 118 131 148 278 46 26 23 327 75 2 56 64 164 106 172 213 84 53 112 277 152 66 55 106 117 170 336 115 222 88 92 63 240 95 65 109 114 149 145 339 301 322 10 97 124 106 100 80 96 102 100 89 93 88
333 325 327 329 331 330 328 330 328 327 327 326 334 305 305 279 183 205 210 166 120 64 336 301 59 83 91 106 154 163 137 148 162 106 209 173 216 86 127 184 220 116 195 124 148 240 139 133 220 107 185 130 250 57 155 137 40 358 82 152 119 255 104 118 83 278 120 82 94 156 56 6 342 68 127 3 59 115 106 105 97 85 96 101 102 93 103
330 327 328 329 330 330 329 330 329 326 328 329 337 273 263 272 258 222 186 138 108 143 182 247 111 129 147 171 171 168 156 163 202 154 143 105 355 148 174 134 172 152 201 116 61 44 8 152 61 69 103 53 30 105 160 74 83 291 18 43 55 338 150 228 118 349 92 113 91 94 70 51 34 64 82 76 71 82 95 93 97 107 94 101 103 107 107
332 328 327 328 329 330 331 330 327 326 326 327 336 213 261 305 305 20 115 98 342 359 358 4 0 356 357 349 280 178 176 168 121 105 126 111 67 11 117 106 229 201 106 105 168 155 181 123 154 159 80 82 148 100 42 95 135 352 70 354 116 69 93 95 85 77 89 76 86 86 75 74 68 64 68 81 82 68 84 94 97 80 96 105 111 116 113
329 329 327 327 328 330 330 329 326 326 325 321 322 260 268 251 271 336 30 65 113 87 347 5 67 45 202 216 274 350 65 78 163 180 148 122 116 340 335 256 168 44 40 230 171 134 178 118 158 129 105 149 93 69 122 71 69 135 108 115 52 293 306 347 99 176 104 77 79 91 91 84 81 80 76 73 70 82 89 93 93 99 98 98 100 109 116
329 328 327 326 329 329 329 327 326 326 323 319 324 268 239 287 260 163 103 110 10 87 140 314 312 222 240 209 113 68 241 169 98 89 60 77 123 139 167 209 164 145 175 175 84 63 47 104 68 63 95 349 112 74 0 109 166 204 87 98 134 42 17 79 78 80 71 116 117 97 90 83 81 81 88 86 84 84 81 88 92 92 89 96 106 108 101
328 329 328 327 328 328 328 327 327 324 322 319 323 295 264 256 298 20 92 72 96 105 105 160 302 337 311 67 71 210 123 94 87 79 71 101 111 132 145 96 38 41 96 76 77 87 94 60 80 67 95 56 57 107 76 295 137 113 109 176 201 145 198 83 151 103 96 96 87 100 95 81 78 88 88 93 100 99 94 89 89 88 87 84 77 84 106
329 330 326 326 327 328 328 328 328 326 323 320 318 247 249 283 323 45 72 168 93 13 34 91 279 308 7 59 322 18 48 87 83 82 76 57 60 48 65 70 78 42 63 45 39 97 69 71 62 73 57 89 87 86 88 52 63 76 56 50 91 80 93 119 116 115 127 141 153 158 117 116 103 105 114 113 107 105 102 99 96 99 99 95 93 84 91
327 326 325 325 328 327 328 330 330 329 325 327 322 263 191 62 10 32 54 102 114 171 168 158 71 349 312 55 9 39 33 46 70 72 56 57 65 71 74 81 89 71 41 73 57 49 67 89 98 110 83 78 71 48 27 79 60 46 39 358 9 124 146 141 132 139 136 153 158 145 113 117 138 139 139 126 121 113 109 107 108 105 108 111 110 109 108
325 324 324 327 326 328 329 331 332 331 333 339 326 27 45 32 40 44 29 355 105 101 104 159 312 25 82 292 338 41 48 77 73 80 78 70 67 63 73 63 76 107 84 77 101 93 82 99 143 88 96 163 96 56 26 53 50 67 356 70 71 89 129 110 117 110 113 128 117 135 130 131 152 151 140 135 133 122 121 127 129 132 131 130 129 143 141
325 323 325 326 327 328 331 332 334 335 338 333 30 56 40 334 336 40 15 33 50 120 85 81 80 202 286 7 32 54 63 63 71 70 67 62 52 47 49 55 34 46 80 103 108 83 76 92 3 14 349 43 100 142 77 102 82 77 76 89 91 86 79 83 108 120 128 134 137 142 133 134 143 144 142 138 138 134 136 143 146 142 147 144 146 165 166
324 324 325 327 328 329 329 331 331 336 347 347 68 60 50 69 297 283 14 7 19 104 118 97 106 303 34 325 83 48 73 69 72 74 72 76 72 69 47 73 41 47 67 32 48 38 69 30 53 5 9 36 102 83 135 106 99 84 71 92 95 98 98 100 103 113 123 127 126 122 119 123 124 110 104 125 125 125 127 140 152 151 156 151 167 174 169
324 323 324 326 325 325 323 322 324 333 343 20 85 150 171 187 238 303 334 340 349 60 70 73 10 11 321 325 330 345 53 53 64 40 16 39 47 35 52 63 79 28 96 102 113 61 22 356 73 44 68 341 56 89 51 82 103 117 121 100 105 108 110 110 111 113 114 117 117 112 115 130 142 144 155 155 142 141 143 154 159 161 160 165 176 185 176
322 322 323 321 320 319 316 313 311 320 286 263 269 274 270 270 270 272 319 331 52 85 114 82 120 200 78 250 334 359 40 30 33 35 46 7 80 34 58 0 33 42 15 79 11 92 300 75 30 58 349 11 73 84 87 92 120 132 125 125 124 122 119 118 115 115 120 128 132 136 144 151 159 152 150 150 149 148 149 156 168 140 120 125 161 206 262
321 321 320 318 315 314 311 307 305 298 272 334 51 344 278 237 263 282 254 101 95 39 78 106 60 56 89 316 76 316 53 109 93 54 76 353 133 67 51 41 11 80 353 83 345 68 25 63 67 87 25 28 38 84 93 114 128 123 113 105 104 101 109 111 115 123 135 140 140 143 150 144 135 131 130 139 151 155 152 150 133 141 172 173 191 200 203
322 319 316 315 311 309 308 311 346 47 133 284 257 255 266 274 221 262 239 101 73 358 33 17 110 88 44 4 80 258 27 82 97 135 116 90 51 110 28 64 354 76 359 59 53 66 88 84 151 71 95 13 43 84 104 143 125 111 103 106 112 111 109 112 126 138 139 131 118 113 114 122 127 137 150 154 153 155 153 165 166 156 161 195 196 212 175
318 314 312 310 308 306 310 60 97 40 32 291 222 234 273 283 279 262 184 110 127 141 94 185 85 136 142 124 128 216 30 75 328 48 106 128 20 32 87 104 79 28 124 71 103 12 90 150 66 83 316 73 94 134 149 137 130 128 126 129 134 128 137 141 144 140 135 129 126 131 136 142 145 155 157 159 155 162 163 160 167 162 168 189 216 231 84
312 311 312 305 304 56 3 241 250 135 214 205 250 283 303 338 349 64 21 32 3 94 134 131 83 192 147 175 250 281 79 141 330 61 356 67 131 296 60 43 92 27 32 11 30 70 354 42 95 76 42 125 149 165 140 132 133 134 138 138 129 120 126 135 142 131 122 121 126 142 150 150 149 150 151 161 173 165 144 149 166 166 175 195 207 164 146
308 312 345 17 41 47 22 321 316 259 293 307 3 26 359 30 71 336 358 38 287 62 351 64 131 232 27 78 112 243 80 175 52 121 338 191 76 25 72 96 138 87 67 85 67 185 69 34 58 99 30 309 260 122 142 138 144 138 137 137 135 137 139 141 132 122 123 115 114 129 118 126 144 157 144 152 151 158 174 179 173 168 165 167 181 145 124
322 345 29 19 97 147 182 244 287 324 21 349 49 62 355 357 55 13 303 271 23 27 291 103 186 155 93 65 1 298 137 161 74 48 99 277 112 225 43 90 307 77 87 75 220 56 65 358 12 44 68 5 77 103 135 139 136 142 146 151 147 145 143 146 142 142 155 168 172 169 148 144 147 158 158 148 160 158 163 159 156 154 158 162 161 139 137
40 29 37 45 61 258 270 288 322 1 55 63 326 103 82 323 94 260 284 56 350 294 48 81 198 154 166 142 134 61 332 84 109 125 143 344 5 134 235 89 204 90 153 106 230 35 114 115 346 70 106 120 106 153 132 137 136 144 131 131 128 139 140 145 143 139 144 168 162 145 138 144 145 150 156 154 147 139 143 104 132 152 148 160 157 145 158
10 354 23 42 272 308 306 300 319 47 69 39 16 1 69 358 293 189 72 42 149 220 213 142 47 62 48 73 79 123 279 86 145 130 110 102 253 79 54 102 209 89 153 86 270 74 75 79 44 125 191 223 159 154 125 113 123 133 144 136 135 143 150 139 132 135 121 122 123 120 131 139 138 145 150 149 149 157 162 148 147 154 146 143 151 153 140
206 192 254 291 288 290 302 349 68 54 2 77 115 214 232 212 332 12 120 132 225 248 341 80 100 130 145 143 154 131 337 205 121 98 98 87 306 108 169 214 24 114 158 225 149 73 83 107 136 175 235 214 186 144 117 120 131 132 141 138 134 138 134 128 120 126 138 125 119 118 130 131 133 143 147 139 137 142 147 144 151 152 138 140 125 128 142
283 249 182 283 324 291 131 51 307 103 104 18 42 75 346 97 210 151 248 281 291 103 253 79 154 147 18 56 54 61 174 212 104 9 74 150 291 59 89 43 66 79 184 121 85 94 86 146 173 216 204 189 182 141 135 138 140 136 144 133 130 132 120 126 134 145 138 123 125 129 135 129 139 150 147 131 125 130 146 156 159 154 143 144 156 157 161
175 113 77 303 67 305 75 42 305 46 6 55 101 157 211 94 287 27 73 240 31 54 182 122 164 104 121 341 134 311 12 3 46 79 47 330 84 42 58 96 162 238 38 74 85 144 197 194 197 178 184 174 170 142 142 139 138 119 96 112 123 114 110 107 106 99 87 95 109 120 119 129 140 149 136 129 129 130 130 102 112 136 156 153 157 168 182
72 8 31 22 30 277 63 303 324 115 165 246 135 167 145 162 211 169 171 243 106 192 123 92 111 94 108 280 45 8 108 164 299 96 233 84 53 15 106 188 218 45 113 178 105 69 43 248 187 140 167 164 165 155 150 148 143 136 142 130 116 119 118 119 117 113 123 129 138 126 118 121 108 111 115 123 132 134 121 119 126 112 141 150 159 179 192
73 143 85 78 354 318 103 193 62 24 294 154 194 194 161 220 170 209 246 136 99 101 104 129 86 87 57 308 124 196 17 82 56 19 146 74 99 88 246 43 71 86 32 82 140 184 208 204 173 172 169 161 158 156 151 153 144 134 129 141 152 131 130 127 133 129 133 129 121 113 129 123 127 123 128 138 140 133 136 145 136 129 131 118 146 168 188
30 0 100 111 99 267 90 158 235 205 178 195 211 174 189 199 197 196 220 146 134 157 125 110 102 147 127 96 55 2 30 62 97 282 67 58 146 252 356 100 211 166 150 202 209 221 237 213 176 163 160 155 154 154 153 150 144 140 148 147 143 140 140 136 135 129 143 128 116 119 130 132 135 138 140 136 149 154 150 136 135 129 119 143 177 177 166
98 255 85 94 227 192 158 243 213 295 256 183 213 197 209 158 117 260 269 100 135 126 114 95 85 47 38 317 83 153 172 45 78 320 137 160 34 46 24 36 282 237 169 158 219 215 179 170 170 165 162 156 155 155 155 153 151 135 137 133 131 129 128 129 131 138 135 135 137 138 144 142 145 156 161 156 148 160 149 143 146 131 123 120 107 141 150
156 104 119 202 202 161 235 248 115 289 270 277 231 133 119 139 223 228 231 112 127 141 148 119 174 90 79 306 89 58 38 328 95 251 17 33 98 191 148 195 188 219 263 166 197 187 170 168 165 155 153 154 156 157 160 160 149 144 144 136 134 132 135 135 137 138 128 131 142 145 136 113 106 112 120 125 138 187 195 163 155 154 150 131 134 132 126
83 344 341 291 2 319 266 179 78 295 300 310 86 168 168 166 156 204 187 98 132 122 68 55 60 90 186 96 49 32 344 295 136 45 60 60 191 183 82 61 232 187 240 234 186 172 152 146 146 149 156 156 159 157 155 157 147 147 151 140 132 125 129 129 127 124 126 137 134 129 130 113 111 114 133 148 169 182 184 165 175 168 132 138 136 110 122
255 143 239 177 144 214 44 332 233 253 40 97 138 159 142 145 148 155 165 120 119 76 52 128 176 96 60 34 60 66 246 198 72 150 156 196 205 113 161 192 239 212 231 245 162 147 155 156 152 151 155 159 158 154 154 151 147 150 144 136 135 131 133 123 124 126 126 128 128 123 126 135 151 150 155 151 139 106 110 195 186 176 155 178 158 136 148
37 22 287 286 223 190 185 199 208 212 213 177 134 186 120 106 159 143 115 104 85 99 148 157 79 81 74 121 213 184 30 46 134 100 80 268 150 146 217 195 218 217 175 120 134 147 146 152 149 150 155 154 157 153 149 146 143 141 135 136 136 134 133 129 130 140 140 135 129 131 148 160 157 141 128 115 102 105 124 153 181 159 153 162 163 148 146